Torna al catalogo

SL-12 DEB

LostHEO
NORAD 29321·DEBRIS·🇷🇺 Russia

Lanciato May 31, 1989 da Baikonur Cosmodrome

Loading…

Prossimi Passaggi (prossime 24 ore)

TLE

ObsoletoSource: Space-Track

Epoca: Jan 3, 2007, 20:11 UTC

1 29321U 89039AC  07003.84133623  .00315665  00000-0  24267+0 0  9992
2 29321 065.7213 214.6906 5607290 060.0796 343.9865 04.53483295  6993

Traccia SL-12 DEB in tempo reale con AllMySat

Download on the App Store